Location: Camp Roosevelt
(41.7914°N, 81.1673°W)
Time: 08:16:10
(UTC+00:00)

Cosmos 1400 Rocket - Pass Details

Date: 29 October 2020
Orbit: 521 x 568 km, 81.2° (Epoch: 27 November)

Event Time Altitude Azimuth Distance (km) Brightness Sun altitude
Rises 23:27:24 0° 198° (SSW) 2,751 6.7 -12.7°
Reaches altitude 10° 23:29:36 10° 203° (SSW) 1,855 5.9 -13.1°
Maximum altitude 23:33:38 56° 282° (WNW) 673 3.6 -13.8°
Drops below altitude 10° 23:37:40 10° 1° (N) 1,850 5.4 -14.6°
Sets 23:39:52 0° 6° (N) 2,743 6.3 -15.0°
